Regional Weather Roundup
Issued by NWS

Home | Current Version | Previous Version | Text Only | Print | Product List | Glossary Off
Versions: 1 2 3 4 5 6 7 8 9 10 11 12 13 14 15 16 17 18 19 20 21 22 23 24 25 26 27

000
ASUS45 KBOU 240507
RWRCO

WEATHER ROUNDUP FOR COLORADO
NATIONAL WEATHER SERVICE DENVER/BOULDER CO
1100 PM MDT THU OCT 23 2014

NOTE: "FAIR" INDICATES FEW OR NO CLOUDS BELOW 12000 FEET WITH NO
SIGNIFICANT WEATHER AND/OR OBSTRUCTIONS TO VISIBILITY.

COZ001>005-013-030-031-240600-
...NORTHWEST COLORADO...

CITY           SKY/WX    TMP DP  RH WIND       PRES   REMARKS
CRAIG          PTCLDY    40  33  76 SE6       30.24R
HAYDEN         PTCLDY    48  28  46 E6        30.25R
MEEKER         PTCLDY    50  35  56 CALM      30.25S
MOUNT WERNER   NOT AVBL
STEAMBOAT SPGS PTCLDY    42  32  68 SE3       30.27R
WALDEN         PTCLDY    46  23  39 S13       30.29S
$$

COZ006>008-011-240600-
...WEST CENTRAL VALLEYS...

CITY           SKY/WX    TMP DP  RH WIND       PRES   REMARKS
GRAND JUNCTION PTCLDY    49  37  63 E7        30.21R
MONTROSE       PTCLDY    49  36  61 SE9       30.29R
EAGLE          NOT AVBL
RIFLE          MOCLDY    46  39  76 CALM      30.26R
DELTA          PTCLDY    54  36  49 NE7       30.26R
NUCLA          PTCLDY    50  32  50 E10       30.32S
$$

COZ017>023-064>068-240600-
...SOUTHWEST COLORADO...

CITY           SKY/WX    TMP DP  RH WIND       PRES   REMARKS
DURANGO        CLEAR     43  37  79 NE5       30.34R
CORTEZ         CLEAR     40  31  70 E5        30.32R
PAGOSA SPRINGS CLEAR     41  35  81 CALM      30.40R
TELLURIDE      CLEAR     44  32  63 SE6       30.48R
WOLF CREEK PAS CLEAR     36  32  87 S8          N/A
$$

COZ009-010-012-014-032>034-037-058>063-240600-
...CENTRAL COLORADO...

CITY           SKY/WX    TMP DP  RH WIND       PRES   REMARKS
ASPEN          PTCLDY    39  29  67 S6        30.35S
BUENA VISTA    CLEAR     38  28  68 W5        30.37R
COPPER MTN     PTCLDY    41  18  38 SW10G18   30.55S
BERTHOUD PASS  FAIR      34  32  93 NW29G44   30.51R WCI  20
COTTONWOOD PAS CLEAR     50  18  27 SW8       30.46R
GUNNISON       CLEAR     37  27  65 CALM      30.41S
KREMMLING      PTCLDY    39  30  70 E5          N/A
LEADVILLE      CLEAR     35  23  61 E6        30.44R WCI  30
MONARCH PASS   PTCLDY    36  23  60 SW24      30.66F
SALIDA         CLEAR     52  30  43 W16       30.41S
SUNLIGHT       PTCLDY    39  28  65 CALM      30.51S
WILKERSON PASS NOT AVBL
$$

COZ069>075-240600-
...SAN LUIS VALLEY/SANGRE DE CRISTO MOUNTAINS...

CITY           SKY/WX    TMP DP  RH WIND       PRES   REMARKS
ALAMOSA        PTCLDY    37  28  70 NE3       30.36R
LA VETA PASS   PTCLDY    45  27  49 S14G20    30.46S
SAGUACHE       PTCLDY    39  28  65 NW10      30.39R
$$

COZ035-036-038>040-240600-
...NORTHERN COLORADO FRONT RANGE...

CITY           SKY/WX    TMP DP  RH WIND       PRES   REMARKS
DENVER INTL AP MOCLDY    59  31  34 S15       30.13R
DMNS CITY PARK   N/A     56  35  45 SE6G13    30.13S
AURORA         MOCLDY    55  32  41 S13       30.16R
FRONT RANGE AP MOCLDY    55  34  44 S14       30.15R
ERIE MUNI ARPT CLOUDY    59  27  29 CALM      30.11S
BOULDER MUN AP CLOUDY    61  28  29 CALM      30.12S
CENTENNIAL     CLOUDY    58  30  34 S13       30.17R
BROOMFIELD     NOT AVBL
FORT COLLINS   PTCLDY    54  36  50 NE5       30.12S
LONGMONT       PTCLDY    62  30  30 W7        30.12S
$$

COZ041-046-047-076>085-087-088-240600-
...PIKES PEAK/PALMER DIVIDE AND SOUTHERN FOOTHILLS...

CITY           SKY/WX    TMP DP  RH WIND       PRES   REMARKS
COLO. SPRINGS  PTCLDY    50  32  50 E5        30.24F
A. F. ACADEMY  PTCLDY    43  32  66 N6        30.25S
ELLICOTT       NOT AVBL
FALCON         PTCLDY    46  32  56 CALM      30.27F
FORT CARSON    PTCLDY    57  29  34 VRB3      30.20F
LIMON          CLEAR     52  36  54 SW5       30.17F
MONUMENT HILL  PTCLDY    46  30  53 S8        30.25R
TRINIDAD       CLEAR     51  33  50 W10       30.21S
$$

COZ042>045-048>051-090-091-240600-
...NORTHEAST COLORADO...

CITY           SKY/WX    TMP DP  RH WIND       PRES   REMARKS
GREELEY ARPT   MOCLDY    48  34  57 CALM      30.10S
AKRON          PTCLDY    57  37  47 SW12      30.09S
BURLINGTON     PTCLDY    55  48  77 SW12      30.11S
WRAY           PTCLDY    54  39  57 SW9       30.05S
STERLING       PTCLDY    48  37  66 CALM      30.06S
HOLYOKE        PTCLDY    52  36  54 SW7       30.04S
FORT MORGAN    PTCLDY    52  31  45 W3        30.09S
$$

COZ086-089-092>099-240600-
...SOUTHEAST COLORADO...

CITY           SKY/WX    TMP DP  RH WIND       PRES   REMARKS
PUEBLO         CLEAR     50  34  54 SW6       30.16R
LA JUNTA       CLEAR     48  38  68 W7        30.13R
LAMAR          CLEAR     50  44  80 W3        30.10R
SPRINGFIELD      N/A     49  46  90 W5        30.15S
$$



USA.gov is the U.S. government's official web portal to all federal, state and local government web resources and services.